Location: Arroyo Grande
(40.2671°N, 4.2512°W)
Time: 04:58:43
(UTC+00:00)

Cosmos 2278 Rocket - Pass Details

Date: 03 February 2023
Orbit: 841 x 845 km, 71.0° (Epoch: 25 March)

Event Time Altitude Azimuth Distance (km) Brightness Sun altitude
Rises 19:56:34 0° 345° (NNW) 3,412 5.5 -26.8°
Reaches altitude 10° 19:59:21 10° 356° (N) 2,473 4.7 -27.3°
Enters shadow 20:00:50 17° 7° (N) 2,036 4.1 -27.6°
